QPF
0.03 0.04 0.03 0.02 0.02 0.03 0.03 0.04 0.05 0.05 0.05 0.06 0.09 0.09 0.07 0.06 0.05 0.05 0.06 0.05 0.05 0.04 0.05 0.05 0.05 0.05 0.04 0.05 0.04 0.03 0.03 0.04 0.04 0.04 0.05 0.05 0.04 0.04 0.04 0.02 0.02 0.02 0.02
0.03 0.04 0.03 0.03 0.03 0.03 0.04 0.04 0.05 0.06 0.07 0.08 0.10 0.08 0.05 0.04 0.06 0.06 0.05 0.06 0.05 0.04 0.04 0.04 0.04 0.04 0.04 0.06 0.06 0.05 0.05 0.05 0.05 0.04 0.05 0.05 0.05 0.05 0.04 0.03 0.04 0.04 0.03
0.04 0.04 0.05 0.05 0.04 0.05 0.05 0.05 0.05 0.06 0.07 0.09 0.12 0.09 0.06 0.05 0.07 0.07 0.06 0.06 0.05 0.06 0.06 0.06 0.05 0.06 0.07 0.07 0.07 0.07 0.07 0.06 0.05 0.06 0.06 0.06 0.04 0.04 0.04 0.04 0.04 0.04 0.03
0.05 0.05 0.04 0.04 0.05 0.05 0.05 0.06 0.07 0.07 0.09 0.11 0.13 0.10 0.08 0.07 0.06 0.07 0.09 0.07 0.07 0.08 0.06 0.06 0.07 0.07 0.08 0.09 0.09 0.08 0.07 0.06 0.07 0.08 0.08 0.09 0.07 0.06 0.04 0.04 0.03 0.03 0.03
0.03 0.04 0.04 0.05 0.04 0.04 0.04 0.05 0.06 0.08 0.08 0.08 0.09 0.09 0.09 0.07 0.07 0.07 0.07 0.08 0.07 0.06 0.06 0.05 0.06 0.07 0.07 0.11 0.12 0.11 0.10 0.09 0.08 0.07 0.08 0.10 0.10 0.08 0.05 0.04 0.02 0.02 0.02
0.04 0.05 0.06 0.06 0.05 0.04 0.06 0.07 0.08 0.09 0.08 0.08 0.07 0.08 0.08 0.06 0.07 0.07 0.07 0.07 0.07 0.05 0.04 0.05 0.08 0.08 0.08 0.09 0.10 0.11 0.11 0.09 0.08 0.08 0.08 0.10 0.10 0.09 0.07 0.05 0.04 0.03 0.02
0.04 0.05 0.04 0.05 0.05 0.05 0.07 0.07 0.07 0.08 0.09 0.07 0.07 0.08 0.08 0.06 0.06 0.07 0.07 0.06 0.05 0.03 0.03 0.05 0.06 0.07 0.08 0.07 0.07 0.07 0.07 0.07 0.08 0.10 0.09 0.09 0.10 0.10 0.09 0.07 0.06 0.05 0.04
0.02 0.03 0.04 0.04 0.05 0.05 0.07 0.06 0.06 0.08 0.08 0.06 0.07 0.08 0.08 0.07 0.06 0.05 0.05 0.03 0.02 0.02 0.02 0.03 0.04 0.05 0.05 0.05 0.06 0.05 0.05 0.06 0.06 0.07 0.08 0.08 0.08 0.09 0.09 0.07 0.07 0.06 0.05
0.02 0.02 0.03 0.03 0.04 0.04 0.07 0.08 0.06 0.07 0.07 0.05 0.05 0.08 0.08 0.08 0.06 0.05 0.04 0.02 0.01 0.02 0.03 0.04 0.03 0.05 0.04 0.03 0.05 0.03 0.02 0.02 0.03 0.04 0.04 0.06 0.06 0.07 0.08 0.08 0.08 0.08 0.06
0.01 0.01 0.02 0.03 0.05 0.04 0.07 0.06 0.05 0.08 0.08 0.07 0.05 0.05 0.06 0.06 0.06 0.06 0.05 0.03 0.02 0.03 0.03 0.02 0.01 0.02 0.02 0.02 0.03 0.02 0.01 0.01 0.01 0.02 0.03 0.04 0.05 0.08 0.11 0.12 0.13 0.11 0.10
0.01 0.01 0.02 0.04 0.04 0.03 0.05 0.06 0.05 0.07 0.09 0.09 0.08 0.07 0.06 0.06 0.05 0.06 0.05 0.04 0.03 0.03 0.02 0.01 0.01 0.01 0.01 0.01 0.02 0.02 0.01 0.01 0.01 0.01 0.02 0.03 0.05 0.12 0.10 0.08 0.09 0.09 0.08
0.02 0.02 0.02 0.02 0.02 0.03 0.05 0.05 0.06 0.06 0.08 0.09 0.09 0.08 0.07 0.06 0.05 0.05 0.04 0.03 0.04 0.02 0.02 0.01 0.01 0.01 0.01 0.01 0.01 0.01 0.01 0.01 0.01 0.01 0.02 0.02 0.03 0.04 0.04 0.04 0.06 0.07 0.08
0.03 0.03 0.03 0.03 0.02 0.03 0.03 0.03 0.04 0.04 0.05 0.06 0.06 0.07 0.06 0.05 0.05 0.05 0.03 0.02 0.02 0.02 0.01 0.01 0.01 0.01 0.01 0.01 0.01 0.01 0.00 0.01 0.01 0.01 0.02 0.02 0.01 0.02 0.03 0.04 0.05 0.05 0.06
0.02 0.01 0.02 0.02 0.02 0.03 0.03 0.03 0.03 0.03 0.04 0.05 0.04 0.06 0.05 0.04 0.05 0.05 0.05 0.04 0.03 0.02 0.02 0.01 0.01 0.00 0.00 0.01 0.01 0.00 0.00 0.01 0.01 0.01 0.01 0.02 0.02 0.02 0.03 0.04 0.04 0.05 0.04
0.01 0.01 0.01 0.02 0.02 0.04 0.04 0.04 0.03 0.03 0.04 0.04 0.04 0.06 0.06 0.05 0.05 0.04 0.05 0.05 0.05 0.03 0.02 0.02 0.01 0.00 0.00 0.01 0.01 0.00 0.01 0.01 0.00 0.00 0.01 0.01 0.02 0.03 0.04 0.04 0.03 0.03 0.03
0.02 0.02 0.01 0.02 0.02 0.02 0.03 0.03 0.03 0.02 0.02 0.03 0.04 0.05 0.05 0.05 0.05 0.04 0.04 0.06 0.05 0.04 0.02 0.01 0.01 0.00 0.00 0.00 0.01 0.01 0.01 0.01 0.00 0.01 0.01 0.01 0.02 0.04 0.04 0.04 0.03 0.02 0.02
0.01 0.02 0.02 0.02 0.02 0.02 0.02 0.02 0.02 0.02 0.02 0.03 0.04 0.05 0.05 0.05 0.04 0.04 0.04 0.05 0.04 0.03 0.02 0.01 0.01 0.01 0.01 0.01 0.01 0.01 0.00 0.01 0.01 0.01 0.01 0.01 0.02 0.03 0.03 0.03 0.03 0.03 0.02
0.01 0.01 0.02 0.02 0.01 0.02 0.02 0.02 0.02 0.02 0.03 0.04 0.05 0.06 0.06 0.05 0.04 0.04 0.04 0.03 0.04 0.04 0.03 0.02 0.02 0.01 0.02 0.01 0.02 0.02 0.01 0.01 0.01 0.01 0.01 0.01 0.01 0.01 0.02 0.03 0.03 0.02 0.02
0.01 0.01 0.02 0.02 0.02 0.02 0.02 0.02 0.02 0.03 0.03 0.04 0.05 0.06 0.06 0.07 0.05 0.05 0.04 0.03 0.03 0.02 0.02 0.02 0.01 0.02 0.01 0.01 0.02 0.01 0.01 0.01 0.01 0.01 0.01 0.01 0.01 0.01 0.02 0.02 0.02 0.02 0.02
0.01 0.02 0.02 0.02 0.03 0.02 0.02 0.01 0.03 0.03 0.04 0.04 0.05 0.06 0.06 0.07 0.06 0.06 0.05 0.05 0.04 0.03 0.03 0.03 0.02 0.02 0.03 0.03 0.02 0.01 0.01 0.01 0.01 0.01 0.01 0.01 0.01 0.01 0.02 0.01 0.01 0.01 0.02
0.01 0.02 0.02 0.04 0.05 0.04 0.03 0.03 0.03 0.05 0.06 0.09 0.08 0.06 0.05 0.05 0.06 0.06 0.05 0.06 0.05 0.05 0.04 0.04 0.04 0.03 0.03 0.04 0.02 0.01 0.01 0.01 0.01 0.01 0.01 0.01 0.01 0.01 0.02 0.02 0.02 0.02 0.02
0.02 0.02 0.04 0.06 0.05 0.05 0.06 0.06 0.06 0.05 0.06 0.06 0.06 0.05 0.04 0.04 0.04 0.05 0.05 0.05 0.06 0.06 0.06 0.06 0.05 0.04 0.04 0.04 0.03 0.02 0.02 0.02 0.01 0.01 0.02 0.02 0.02 0.02 0.03 0.02 0.03 0.04 0.04
0.02 0.03 0.05 0.06 0.05 0.07 0.09 0.08 0.10 0.08 0.09 0.10 0.09 0.09 0.08 0.07 0.07 0.07 0.07 0.09 0.08 0.06 0.06 0.07 0.06 0.05 0.05 0.05 0.04 0.03 0.03 0.03 0.03 0.03 0.03 0.02 0.03 0.03 0.03 0.02 0.02 0.02 0.02
0.02 0.03 0.04 0.06 0.06 0.07 0.09 0.07 0.09 0.09 0.08 0.08 0.08 0.07 0.07 0.08 0.09 0.10 0.10 0.11 0.10 0.08 0.06 0.05 0.04 0.04 0.04 0.06 0.04 0.04 0.04 0.04 0.03 0.04 0.04 0.03 0.03 0.03 0.03 0.02 0.02 0.02 0.02
0.04 0.04 0.05 0.05 0.05 0.05 0.06 0.05 0.07 0.06 0.06 0.06 0.07 0.07 0.07 0.08 0.08 0.09 0.08 0.06 0.05 0.04 0.03 0.03 0.03 0.02 0.03 0.03 0.03 0.03 0.04 0.03 0.03 0.04 0.04 0.04 0.04 0.04 0.03 0.02 0.02 0.02 0.02
0.07 0.06 0.05 0.04 0.04 0.04 0.05 0.05 0.06 0.05 0.05 0.06 0.07 0.07 0.06 0.05 0.04 0.04 0.04 0.03 0.03 0.04 0.05 0.04 0.04 0.04 0.03 0.03 0.04 0.03 0.04 0.04 0.04 0.04 0.03 0.04 0.04 0.05 0.04 0.02 0.02 0.02 0.02
MSLP
1017.01 1017.14 1017.28 1017.43 1017.57 1017.68 1017.76 1017.80 1017.81 1017.78 1017.72 1017.65 1017.60 1017.58 1017.63 1017.76 1018.00 1018.34 1018.76 1019.22 1019.70 1020.14 1020.52 1020.83 1021.06 1021.21 1021.33 1021.43 1021.54 1021.67 1021.84 1022.02 1022.22 1022.41 1022.57 1022.70 1022.79 1022.84 1022.86 1022.85 1022.82 1022.79 1022.74
1017.33 1017.35 1017.41 1017.49 1017.57 1017.65 1017.72 1017.77 1017.79 1017.78 1017.75 1017.70 1017.67 1017.66 1017.70 1017.81 1018.01 1018.30 1018.67 1019.08 1019.51 1019.92 1020.30 1020.62 1020.87 1021.06 1021.21 1021.35 1021.47 1021.61 1021.77 1021.93 1022.10 1022.26 1022.40 1022.50 1022.58 1022.62 1022.64 1022.63 1022.61 1022.59 1022.55
1017.68 1017.61 1017.58 1017.58 1017.61 1017.67 1017.73 1017.79 1017.84 1017.86 1017.86 1017.85 1017.82 1017.81 1017.82 1017.89 1018.02 1018.22 1018.49 1018.82 1019.18 1019.55 1019.90 1020.22 1020.50 1020.74 1020.94 1021.12 1021.28 1021.43 1021.58 1021.73 1021.86 1021.99 1022.09 1022.17 1022.23 1022.27 1022.29 1022.31 1022.31 1022.31 1022.29
1018.01 1017.86 1017.76 1017.70 1017.68 1017.71 1017.77 1017.85 1017.93 1018.00 1018.04 1018.06 1018.04 1018.02 1017.99 1017.99 1018.02 1018.12 1018.27 1018.48 1018.74 1019.04 1019.35 1019.66 1019.96 1020.24 1020.49 1020.71 1020.91 1021.09 1021.24 1021.37 1021.49 1021.58 1021.65 1021.71 1021.76 1021.80 1021.84 1021.88 1021.91 1021.94 1021.96
1018.26 1018.07 1017.91 1017.80 1017.75 1017.77 1017.83 1017.93 1018.05 1018.16 1018.25 1018.30 1018.30 1018.27 1018.20 1018.12 1018.06 1018.03 1018.04 1018.12 1018.26 1018.46 1018.70 1018.98 1019.28 1019.57 1019.86 1020.13 1020.36 1020.57 1020.74 1020.87 1020.97 1021.05 1021.10 1021.15 1021.19 1021.24 1021.30 1021.36 1021.43 1021.49 1021.55
1018.39 1018.18 1017.99 1017.86 1017.79 1017.80 1017.87 1018.00 1018.15 1018.31 1018.45 1018.53 1018.56 1018.53 1018.43 1018.29 1018.14 1017.98 1017.87 1017.80 1017.81 1017.88 1018.03 1018.25 1018.51 1018.80 1019.10 1019.39 1019.66 1019.90 1020.09 1020.24 1020.35 1020.43 1020.49 1020.54 1020.58 1020.64 1020.71 1020.79 1020.89 1020.98 1021.06
1018.35 1018.15 1017.96 1017.83 1017.76 1017.77 1017.86 1018.01 1018.20 1018.40 1018.58 1018.72 1018.78 1018.76 1018.66 1018.48 1018.25 1018.01 1017.77 1017.57 1017.44 1017.38 1017.42 1017.54 1017.74 1017.99 1018.28 1018.58 1018.87 1019.14 1019.36 1019.55 1019.68 1019.78 1019.86 1019.92 1019.97 1020.04 1020.11 1020.20 1020.31 1020.41 1020.51
1018.15 1017.98 1017.81 1017.69 1017.64 1017.66 1017.77 1017.94 1018.16 1018.40 1018.63 1018.81 1018.91 1018.92 1018.83 1018.65 1018.39 1018.08 1017.76 1017.45 1017.20 1017.02 1016.93 1016.93 1017.04 1017.22 1017.47 1017.76 1018.05 1018.34 1018.60 1018.83 1019.00 1019.14 1019.25 1019.32 1019.39 1019.46 1019.53 1019.62 1019.71 1019.81 1019.89
1017.78 1017.66 1017.53 1017.45 1017.42 1017.46 1017.58 1017.77 1018.01 1018.28 1018.54 1018.76 1018.91 1018.97 1018.91 1018.76 1018.51 1018.18 1017.81 1017.43 1017.08 1016.79 1016.58 1016.47 1016.47 1016.57 1016.75 1016.99 1017.28 1017.57 1017.86 1018.12 1018.35 1018.53 1018.67 1018.77 1018.85 1018.92 1018.98 1019.04 1019.11 1019.18 1019.25
1017.27 1017.20 1017.13 1017.09 1017.09 1017.16 1017.29 1017.49 1017.74 1018.02 1018.30 1018.55 1018.74 1018.85 1018.85 1018.75 1018.54 1018.23 1017.86 1017.45 1017.05 1016.68 1016.37 1016.15 1016.04 1016.04 1016.14 1016.32 1016.57 1016.86 1017.16 1017.45 1017.72 1017.94 1018.11 1018.24 1018.33 1018.39 1018.44 1018.47 1018.51 1018.54 1018.59
1016.65 1016.64 1016.63 1016.63 1016.68 1016.77 1016.91 1017.11 1017.36 1017.63 1017.91 1018.17 1018.39 1018.54 1018.60 1018.56 1018.42 1018.17 1017.84 1017.45 1017.03 1016.62 1016.24 1015.94 1015.73 1015.63 1015.63 1015.74 1015.94 1016.20 1016.50 1016.80 1017.09 1017.34 1017.55 1017.70 1017.80 1017.86 1017.88 1017.89 1017.90 1017.91 1017.93
1015.93 1015.98 1016.02 1016.08 1016.17 1016.29 1016.44 1016.64 1016.87 1017.12 1017.38 1017.64 1017.87 1018.05 1018.16 1018.19 1018.12 1017.95 1017.69 1017.35 1016.96 1016.54 1016.13 1015.77 1015.48 1015.30 1015.22 1015.25 1015.38 1015.59 1015.86 1016.16 1016.45 1016.72 1016.94 1017.10 1017.21 1017.27 1017.29 1017.29 1017.28 1017.28 1017.30
1015.14 1015.23 1015.33 1015.44 1015.58 1015.72 1015.89 1016.08 1016.29 1016.51 1016.74 1016.98 1017.20 1017.39 1017.54 1017.62 1017.63 1017.54 1017.36 1017.09 1016.75 1016.37 1015.97 1015.58 1015.25 1015.00 1014.85 1014.80 1014.86 1015.02 1015.24 1015.50 1015.78 1016.04 1016.26 1016.43 1016.55 1016.61 1016.65 1016.65 1016.66 1016.67 1016.71
1014.27 1014.40 1014.56 1014.72 1014.90 1015.08 1015.27 1015.45 1015.64 1015.83 1016.03 1016.23 1016.42 1016.61 1016.77 1016.89 1016.95 1016.93 1016.83 1016.65 1016.39 1016.06 1015.70 1015.32 1014.98 1014.69 1014.49 1014.38 1014.38 1014.47 1014.63 1014.84 1015.08 1015.31 1015.52 1015.68 1015.81 1015.89 1015.94 1015.98 1016.01 1016.06 1016.14
1013.35 1013.51 1013.71 1013.92 1014.14 1014.36 1014.57 1014.77 1014.94 1015.11 1015.27 1015.43 1015.59 1015.75 1015.90 1016.03 1016.13 1016.17 1016.14 1016.03 1015.85 1015.60 1015.29 1014.96 1014.64 1014.35 1014.12 1013.98 1013.91 1013.94 1014.03 1014.19 1014.36 1014.55 1014.73 1014.88 1015.01 1015.11 1015.19 1015.26 1015.35 1015.45 1015.58
1012.39 1012.57 1012.79 1013.04 1013.31 1013.56 1013.80 1014.02 1014.20 1014.35 1014.49 1014.61 1014.74 1014.86 1014.99 1015.11 1015.22 1015.29 1015.31 1015.27 1015.16 1014.99 1014.76 1014.50 1014.22 1013.96 1013.74 1013.57 1013.47 1013.44 1013.47 1013.55 1013.67 1013.80 1013.93 1014.05 1014.16 1014.27 1014.39 1014.51 1014.65 1014.81 1015.00
1011.42 1011.60 1011.84 1012.11 1012.41 1012.70 1012.97 1013.20 1013.40 1013.56 1013.68 1013.79 1013.88 1013.97 1014.06 1014.16 1014.26 1014.34 1014.39 1014.40 1014.36 1014.26 1014.12 1013.93 1013.72 1013.52 1013.32 1013.16 1013.05 1012.98 1012.96 1012.97 1013.01 1013.07 1013.14 1013.22 1013.31 1013.41 1013.54 1013.70 1013.89 1014.11 1014.35
1010.48 1010.64 1010.87 1011.15 1011.46 1011.77 1012.07 1012.33 1012.55 1012.72 1012.85 1012.94 1013.01 1013.08 1013.14 1013.21 1013.29 1013.37 1013.44 1013.48 1013.49 1013.46 1013.39 1013.29 1013.16 1013.02 1012.88 1012.75 1012.64 1012.55 1012.48 1012.43 1012.40 1012.39 1012.38 1012.41 1012.45 1012.54 1012.67 1012.85 1013.07 1013.34 1013.63
1009.60 1009.73 1009.93 1010.19 1010.49 1010.80 1011.11 1011.40 1011.64 1011.83 1011.97 1012.07 1012.14 1012.19 1012.23 1012.28 1012.34 1012.41 1012.48 1012.54 1012.59 1012.62 1012.62 1012.60 1012.55 1012.48 1012.40 1012.31 1012.22 1012.12 1012.02 1011.93 1011.83 1011.74 1011.67 1011.62 1011.62 1011.66 1011.77 1011.95 1012.19 1012.49 1012.81
1008.81 1008.89 1009.04 1009.27 1009.54 1009.84 1010.14 1010.43 1010.69 1010.90 1011.05 1011.17 1011.24 1011.29 1011.33 1011.36 1011.41 1011.47 1011.54 1011.61 1011.69 1011.76 1011.82 1011.86 1011.88 1011.88 1011.85 1011.81 1011.75 1011.66 1011.55 1011.42 1011.27 1011.12 1010.98 1010.87 1010.80 1010.80 1010.88 1011.04 1011.28 1011.58 1011.92
1008.14 1008.16 1008.26 1008.43 1008.65 1008.92 1009.20 1009.47 1009.73 1009.94 1010.11 1010.24 1010.32 1010.38 1010.43 1010.46 1010.51 1010.57 1010.64 1010.72 1010.81 1010.91 1011.00 1011.08 1011.15 1011.21 1011.23 1011.23 1011.20 1011.12 1011.02 1010.87 1010.70 1010.51 1010.32 1010.16 1010.04 1009.99 1010.03 1010.16 1010.38 1010.68 1011.03
1007.60 1007.57 1007.61 1007.72 1007.89 1008.10 1008.33 1008.58 1008.81 1009.01 1009.18 1009.31 1009.41 1009.48 1009.54 1009.59 1009.64 1009.70 1009.78 1009.86 1009.96 1010.07 1010.18 1010.29 1010.38 1010.46 1010.52 1010.55 1010.55 1010.50 1010.40 1010.27 1010.09 1009.89 1009.69 1009.50 1009.35 1009.27 1009.27 1009.37 1009.57 1009.86 1010.21
1007.18 1007.11 1007.11 1007.17 1007.28 1007.43 1007.61 1007.80 1007.99 1008.16 1008.31 1008.43 1008.53 1008.61 1008.68 1008.74 1008.81 1008.88 1008.96 1009.05 1009.15 1009.26 1009.36 1009.47 1009.57 1009.66 1009.73 1009.78 1009.80 1009.78 1009.72 1009.61 1009.47 1009.29 1009.10 1008.92 1008.77 1008.68 1008.67 1008.74 1008.92 1009.19 1009.53
1006.88 1006.81 1006.78 1006.81 1006.87 1006.96 1007.07 1007.20 1007.32 1007.44 1007.54 1007.63 1007.71 1007.79 1007.85 1007.93 1008.00 1008.09 1008.18 1008.27 1008.37 1008.46 1008.56 1008.65 1008.73 1008.81 1008.88 1008.94 1008.98 1008.99 1008.97 1008.92 1008.84 1008.72 1008.59 1008.46 1008.34 1008.27 1008.26 1008.33 1008.49 1008.74 1009.06
1006.69 1006.64 1006.62 1006.63 1006.65 1006.69 1006.73 1006.78 1006.82 1006.86 1006.89 1006.93 1006.97 1007.01 1007.07 1007.13 1007.22 1007.31 1007.40 1007.50 1007.59 1007.68 1007.76 1007.83 1007.89 1007.96 1008.02 1008.08 1008.14 1008.19 1008.23 1008.25 1008.25 1008.23 1008.18 1008.13 1008.08 1008.06 1008.08 1008.15 1008.29 1008.51 1008.80
1006.59 1006.59 1006.59 1006.60 1006.61 1006.60 1006.58 1006.54 1006.49 1006.43 1006.37 1006.32 1006.28 1006.28 1006.29 1006.34 1006.42 1006.51 1006.61 1006.71 1006.81 1006.89 1006.96 1007.02 1007.07 1007.12 1007.18 1007.25 1007.34 1007.44 1007.54 1007.65 1007.75 1007.83 1007.89 1007.94 1007.98 1008.02 1008.08 1008.16 1008.29 1008.48 1008.72
Thickness
5768 5767 5766 5765 5767 5767 5767 5766 5766 5766 5766 5766 5766 5765 5765 5764 5764 5764 5760 5756 5754 5752 5751 5750 5748 5747 5745 5744 5742 5741 5739 5737 5736 5734 5733 5732 5731 5729 5728 5727 5726 5725 5723
5767 5766 5766 5765 5766 5766 5767 5766 5766 5766 5766 5766 5766 5765 5765 5765 5763 5762 5762 5758 5755 5753 5751 5750 5748 5747 5745 5743 5742 5740 5738 5737 5735 5734 5733 5732 5730 5729 5728 5727 5726 5725 5724
5766 5765 5766 5765 5765 5765 5765 5765 5765 5765 5765 5766 5765 5764 5765 5764 5763 5761 5761 5760 5758 5754 5752 5750 5748 5746 5745 5743 5741 5740 5738 5737 5736 5735 5734 5732 5730 5729 5728 5727 5726 5725 5724
5765 5764 5765 5765 5764 5764 5765 5764 5765 5764 5764 5764 5764 5764 5764 5763 5762 5761 5761 5760 5759 5757 5754 5750 5748 5746 5745 5743 5741 5740 5738 5737 5736 5735 5733 5732 5731 5729 5728 5726 5725 5724 5723
5765 5764 5765 5764 5763 5764 5764 5764 5764 5762 5761 5761 5763 5762 5763 5762 5761 5761 5760 5760 5758 5756 5755 5751 5749 5747 5745 5743 5742 5740 5739 5737 5736 5734 5733 5732 5730 5729 5727 5726 5725 5724 5723
5765 5765 5765 5763 5763 5764 5763 5762 5760 5760 5760 5760 5762 5761 5761 5762 5761 5760 5759 5759 5758 5756 5755 5754 5751 5749 5746 5744 5742 5741 5739 5738 5736 5735 5733 5732 5731 5729 5727 5726 5725 5723 5722
5766 5765 5766 5764 5763 5763 5761 5761 5760 5759 5759 5759 5757 5756 5759 5761 5761 5759 5759 5759 5758 5756 5754 5753 5752 5750 5748 5745 5743 5741 5739 5738 5736 5735 5734 5732 5731 5729 5727 5726 5724 5723 5722
5767 5767 5765 5765 5764 5762 5761 5760 5758 5758 5759 5759 5755 5752 5751 5754 5756 5760 5758 5757 5756 5756 5754 5753 5751 5749 5748 5748 5745 5741 5739 5737 5736 5735 5734 5732 5731 5729 5728 5726 5724 5723 5721
5768 5767 5766 5765 5764 5764 5762 5760 5759 5757 5755 5757 5757 5753 5748 5747 5751 5755 5755 5756 5755 5754 5754 5752 5750 5749 5748 5747 5745 5741 5739 5737 5735 5734 5733 5732 5731 5729 5727 5726 5724 5722 5720
5768 5767 5766 5765 5764 5765 5763 5762 5762 5759 5756 5754 5756 5755 5753 5752 5746 5747 5752 5755 5754 5753 5752 5752 5751 5749 5747 5746 5743 5740 5737 5735 5734 5733 5732 5731 5730 5728 5726 5725 5723 5722 5720
5769 5768 5766 5765 5764 5764 5763 5761 5760 5759 5758 5755 5755 5754 5752 5750 5750 5746 5744 5747 5750 5752 5752 5750 5749 5749 5747 5745 5743 5740 5736 5734 5732 5731 5730 5729 5728 5727 5725 5723 5721 5720 5719
5770 5769 5767 5765 5764 5763 5762 5761 5760 5759 5758 5756 5754 5754 5752 5749 5748 5747 5744 5744 5745 5748 5749 5749 5748 5747 5745 5743 5741 5737 5734 5732 5730 5729 5728 5726 5725 5724 5723 5721 5719 5718 5717
5771 5768 5768 5765 5764 5762 5761 5760 5759 5759 5758 5755 5753 5753 5753 5752 5752 5749 5745 5744 5744 5746 5746 5746 5747 5745 5743 5741 5738 5735 5732 5729 5728 5726 5724 5723 5722 5720 5719 5718 5717 5715 5714
5772 5770 5767 5765 5763 5762 5761 5759 5759 5758 5757 5755 5754 5753 5752 5752 5752 5749 5746 5743 5740 5742 5743 5742 5744 5743 5740 5738 5735 5732 5730 5727 5725 5723 5722 5720 5719 5717 5716 5715 5714 5712 5711
5771 5769 5766 5764 5762 5761 5759 5757 5757 5756 5756 5755 5754 5753 5751 5752 5751 5749 5747 5744 5739 5735 5736 5739 5739 5739 5736 5733 5731 5729 5727 5725 5722 5721 5719 5718 5716 5714 5713 5712 5711 5709 5708
5768 5767 5765 5763 5762 5760 5758 5756 5756 5755 5753 5752 5751 5751 5749 5750 5749 5747 5745 5743 5741 5736 5733 5737 5736 5736 5732 5730 5727 5725 5724 5721 5719 5718 5716 5715 5713 5711 5709 5708 5706 5705 5704
5766 5764 5763 5761 5760 5758 5757 5755 5754 5753 5751 5750 5750 5749 5747 5746 5745 5745 5743 5741 5738 5736 5731 5733 5734 5731 5726 5723 5722 5720 5720 5719 5718 5715 5713 5711 5709 5707 5705 5704 5702 5700 5698
5765 5763 5761 5760 5759 5757 5755 5753 5751 5750 5749 5747 5746 5745 5744 5743 5740 5740 5739 5737 5735 5733 5729 5725 5726 5725 5722 5719 5717 5715 5716 5717 5715 5712 5709 5707 5705 5703 5701 5699 5697 5695 5693
5763 5762 5759 5757 5756 5755 5753 5751 5749 5748 5746 5745 5743 5741 5740 5738 5735 5736 5734 5734 5732 5730 5727 5723 5721 5720 5718 5716 5712 5711 5712 5710 5710 5709 5706 5703 5700 5698 5696 5693 5691 5690 5688
5760 5758 5757 5755 5753 5752 5750 5748 5746 5744 5742 5741 5740 5738 5737 5735 5733 5731 5730 5727 5726 5723 5721 5718 5716 5714 5711 5709 5706 5705 5705 5706 5705 5705 5702 5699 5696 5693 5690 5688 5686 5684 5682
5757 5755 5754 5752 5750 5748 5747 5744 5742 5740 5737 5736 5734 5733 5732 5730 5728 5726 5726 5723 5720 5717 5716 5713 5711 5708 5706 5701 5700 5701 5699 5700 5699 5699 5697 5695 5693 5690 5687 5683 5681 5678 5676
5752 5751 5749 5747 5746 5745 5742 5738 5736 5735 5733 5730 5728 5727 5726 5724 5722 5719 5717 5714 5712 5710 5709 5707 5705 5702 5699 5698 5696 5694 5693 5692 5690 5692 5690 5688 5688 5685 5683 5680 5676 5673 5670
5746 5745 5744 5743 5741 5738 5734 5731 5729 5728 5727 5725 5723 5721 5722 5722 5717 5715 5711 5707 5705 5703 5702 5700 5698 5697 5695 5694 5690 5688 5686 5685 5683 5685 5682 5681 5682 5679 5677 5675 5670 5667 5664
5739 5738 5737 5737 5735 5733 5728 5725 5722 5721 5720 5718 5717 5715 5713 5711 5710 5707 5705 5703 5701 5699 5697 5694 5693 5692 5690 5687 5685 5683 5681 5678 5677 5677 5675 5673 5674 5673 5673 5669 5664 5661 5658
5730 5730 5730 5729 5727 5725 5721 5718 5714 5714 5713 5711 5710 5708 5706 5704 5700 5697 5696 5694 5693 5691 5689 5686 5684 5682 5680 5677 5676 5676 5674 5673 5671 5671 5670 5667 5667 5665 5664 5663 5659 5654 5652
5722 5722 5721 5721 5720 5718 5713 5710 5707 5709 5707 5704 5702 5700 5697 5695 5690 5688 5688 5687 5684 5683 5681 5680 5676 5674 5673 5671 5668 5667 5668 5666 5665 5663 5663 5660 5659 5657 5656 5657 5654 5650 5647